Погода в Виви

Погода в Виви : погода сейчас, прогноз погоды и архив. Всё, что Вы хотите узнать о погоде в Виви!

Поиск расширенной информации на нашем сайте:

Другие новости

Новости СМИ2

Главная страница сайта

Новости сайта

02.10.2013

Напоминаем, что на нашем новом сайте вы можете получить высокодетализированные прогнозы погоды по пунктам России, СНГ и мира (включающие важные для авиации метеовеличины, такие как направление и скорость ветра, видимость, явления погоды, количество и форма облачности, нижняя и верхняя граница облачности), а также ознакомиться с разнообразными материалами по авиационной метеорологии и подборкой полезных ссылок на эту тему.

Сайт Метеоцентр.Азия посвящён разработке технологий оптимизации авиаметеорологического обслуживания, включая проектирование и перспективное создание нескольких автоматизированных авиаметеорологических систем:
- система выпуска высокодетальных прогностических карт явлений погоды для нижнего воздушного пространства по России и ближнему зарубежью;
- система верификации прогнозов TAF (выпускаемых синоптиками официальных АМСГ РФ и ближнего зарубежья) и AUTOTAF (выпускаемых сайтом Метеоцентр.Азия) - выявление ошибок, онлайн-сопоставление с фактической погодой METAR, автоматическое внесение коррективов в прогнозы при резком отклонении фактической погоды от прогноза, подсчёт оправдываемости прогнозов по элементам и в целом;
- система обработки, анализа и отображения авиаметеорологической информации для применения провайдерами метеорологической информации.


Погода в Виви - сегодня

Время (UTC), дата Ветер
(°,м/с) 
Видим.   Явления Облачность Т
(°С)
Тd
(°С)
f(%) Тe
(°С)
Pmin
(гПа)
dP
(гПа)
Po
(мм)
O2
(г/м3)
Тmin Tmax R s Состояние
почвы
18 24.06.17 тихо ()   н/о    6/6 1000 м 
[Sc]
+13.6 +11.7 88 +18  1007.9  -0.2  736  280           
00 25.06.17 тихо ()   20000 м    8/4 1000 м верхняя 
[Sc|Ci fib]
+18.4 +11.7 65 +22  1006.4  -0.3  735  275  +9.8         
03 25.06.17 090 (В) 20000 м    8/5 600 м средняя 
[Cu Sc|Ac trans]
+23.1 +10.7 46 +26  1005.1  -0.9  734  271           
06 25.06.17 050 (СВ) 20000 м    9/9 600 м 
[Cu Sc]
+21.6 +9.6 46 +23  1004.8  -0.4  734  272           
09 25.06.17 050 (СВ) 20000 м    10/10 1000 м 
[Sc]
+20.3 +9.2 49 +21  1004.9  734  274           
12 25.06.17 050 (СВ) 20000 м    10/10 1000 м 
[Sc]
+19.6 +11 58 +24  1004.7  -0.3  734  274    +24.3       
15 25.06.17 090 (В) 20000 м    8/8 1000 м 
[Sc]
+17.5 +9.5 59 +20  1004.3  -0.6  733  276           
18 25.06.17 тихо ()   н/о    9/9 1000 м 
[Sc]
+11.3 +6 70 +11  1005.3  0.3  733  283           
21 25.06.17 тихо ()   20000 м    9/9 1000 м 
[Sc]
+10.2 +7.9 86 +10  1004.7  -0.6  733  283           
00 26.06.17 270 (З) 20000 м    9/9 1000 м 
[Sc]
+14 +10.8 81 +18  1004.3  733  279  +9.7         
03 26.06.17 200 (Ю) 20000 м    6/0 средняя 
[As trans]
+21.2 +9.2 46 +22  1003.2  -0.4  733  272           
06 26.06.17 230 (ЮЗ) 20000 м    3/0 средняя 
[As trans]
+25.8 +5.6 27 +26  1001.9  -0.9  732  269           
09 26.06.17 340 (С) 20000 м    6/6 600 м 
[Cu hum]
+29.3 +8.2 27 +29  1000.9  -0.7  731  265           
12 26.06.17 270 (З) 20000 м    4/4 600 м 
[Cu hum]
+28.9 +9.4 30 +30  1001.2  0.3  732  265    +29.9       
15 26.06.17 тихо ()   20000 м    4/4 1000 м 
[Sc]
+17.4 +12.2 72 +22  1002.9  0.6  732  275           
21 26.06.17 тихо ()   20000 м    6/6 1000 м 
[Sc]
+7.6 +6.5 93 +8  1006  0.9  734  287           
00 27.06.17 тихо ()   20000 м    8/3 1000 м верхняя 
[Sc|Ci fib]
+14.4 +10.8 79 +17  1005.6  0.3  734  279  +6.2         
03 27.06.17 180 (Ю) 20000 м    8/3 600 м кучево-дожд., верхняя 
[Cb calv|Ci fib]
+26.7 +12.4 41 +32  1004.3  -0.2  734  267           
06 27.06.17 160 (Ю) 20000 м    10/5 600 м верхняя 
[Cu med, cong|Cs]
+30.8 +7.4 23 +31  1003.4  -0.6  733  264           
09 27.06.17 160 (Ю) 20000 м    10/4 600 м средняя, верхняя 
[Cu med, cong|Ac trans|Cs]
+31.2 +9.2 26 +32  1002.8  -0.4  733  264           
12 27.06.17 тихо ()   20000 м    10/3 600 м средняя 
[Cu Sc|Ac As]
+28 +12.9 39 +34  1004.1  734  266    +32.1       
15 27.06.17 тихо ()   20000 м    10/10 600 м 
[Sc]
+18 +11.6 66 +22  1006.3  1.2  735  276           
21 27.06.17 тихо ()   20000 м    10/10 1000 м 
[Sc]
+9.6 +7.4 86 +10  1008.5  1.1  736  285           
00 28.06.17 тихо ()   20000 м    10/4 2000 м средняя, верхняя 
[Ac trans|Cs]
+19.2 +13.8 71 +26  1008.4  0.8  736  274  +8.4         
03 28.06.17 230 (ЮЗ) 20000 м    8/3 600 м верхняя 
[Cu hum|Ci fib]
+25.9 +12.9 45 +32  1007.8  736  269           
Время (UTC), дата Ветер
(°,м/с) 
Видим.   Явления Облачность Т
(°С)
Тd
(°С)
f(%) Тe
(°С)
Pmin
(гПа)
dP
(гПа)
Po
(мм)
O2
(г/м3)
Тmin Tmax R s Состояние
почвы

Для получения пояснительной информации подведите курсор к названию столбца.

ПОГОДА в Виви - архив

Всё, что Вы хотите узнать о погоде в Виви - удобно и подробно!

Выберите нужную дату (начиная с 1 января 2015* года) и нажмите кнопку "Найти".
Будут отображены архивные сводки погоды по пункту Виви, начиная с указанной даты.


Отображать данные в формате CSV (для использования в таблицах Excel)


Внимание! Наш архив погоды предназначен исключительно для личного некоммерческого использования в познавательных целях. Если Вам необходимы официальные справки о состоянии погоды (для производственных, юридических, коммерческих и т.п. целей), обращайтесь в органы Росгидромета.

*Примечание: данная дата относится к архиву по метеостанциям СССР (Россия, СНГ, Балтия).
Архив по метеостанциям Зарубежной Европы и Азии (кроме Китая) хранится 10 дней, по другим регионам земного шара (Китай, Африка, Америка, Австралия, Океания) - 1 день.

Виви - район местоположения метеостанции


Название, широта, долгота, высота метеостанции:
Виви 63.9°ш. 97.8°д. 109 м над ур. моря [Российская Федерация]

Дополнительная информация

В oтличие oт бoльшинства пoгoдных сайтoв мы публикуем пoдрoбную метеoинфoрмацию в детальнoм прoфессиoнальнoм фoрмате.

Характеристики температуры и влажнoсти вoздуха измеряются на высoте 2 м в тени вдали oт зданий и деревьев.
Скoрoсть ветра измеряется на высoте 10 м (на урoвне рoста челoвека скoрoсть ветра ниже в 1.5-2 раза). Если метеoстанция нахoдится в гoрoде или в лесу, тo скoрoсть ветра занижена на 2-4 м/с пo сравнению с oткрытым местoм. Скoрoсть ветра над акватoриями крупных рек и oзёр, а также на вершинах хoлмoв на 2-5 м/с выше, чем в oбычных услoвиях.
Атмoсфернoе давление в разных тoчках местнoсти мoжет значительнo oтличаться oт давления на метеoстанции, в зависимoсти oт услoвий рельефа (при пoдъёме на 10 м давление пoнижается примернo на 1 мм рт.ст.).